TimeEST,TemperatureF,Dew PointF,Humidity,Sea Level PressureIn,VisibilityMPH,Wind Direction,Wind SpeedMPH,Gust SpeedMPH,PrecipitationIn,Events,Conditions,WindDirDegrees,DateUTC
12:54 AM,3.9,-7.1,60,30.08,10.0,West,11.5,-,N/A,,Overcast,280,2013-01-23 05:54:00
1:11 AM,3.2,-7.6,61,29.98,10.0,WNW,11.5,-,N/A,,Mostly Cloudy,290,2013-01-23 06:11:00
1:18 AM,3.2,-7.6,61,29.98,10.0,West,11.5,-,N/A,,Mostly Cloudy,280,2013-01-23 06:18:00
1:54 AM,1.9,-6.0,69,30.10,10.0,West,9.2,-,N/A,,Clear,280,2013-01-23 06:54:00
2:54 AM,1.9,-6.0,69,30.10,10.0,WNW,10.4,-,N/A,,Clear,290,2013-01-23 07:54:00
3:54 AM,1.0,-7.1,69,30.12,10.0,West,8.1,-,N/A,,Clear,270,2013-01-23 08:54:00
4:54 AM,-0.0,-8.0,69,30.13,10.0,West,5.8,-,N/A,,Clear,270,2013-01-23 09:54:00
5:54 AM,-0.0,-8.0,69,30.13,10.0,West,6.9,-,N/A,,Clear,270,2013-01-23 10:54:00
6:54 AM,-2.0,-8.0,76,30.14,10.0,West,5.8,-,N/A,,Clear,270,2013-01-23 11:54:00
7:54 AM,-0.9,-8.0,72,30.16,10.0,WNW,5.8,-,N/A,,Partly Cloudy,300,2013-01-23 12:54:00
8:54 AM,-0.0,-8.0,69,30.17,10.0,WNW,6.9,18.4,N/A,,Partly Cloudy,290,2013-01-23 13:54:00
9:40 AM,1.4,-5.8,72,30.06,10.0,West,9.2,-,N/A,,Mostly Cloudy,280,2013-01-23 14:40:00
9:54 AM,1.9,-6.0,69,30.18,10.0,WNW,11.5,-,N/A,,Mostly Cloudy,290,2013-01-23 14:54:00
10:01 AM,1.4,-5.8,72,30.06,10.0,WNW,12.7,-,N/A,,Scattered Clouds,290,2013-01-23 15:01:00
10:54 AM,3.9,-6.0,64,30.16,10.0,WNW,12.7,20.7,N/A,,Partly Cloudy,300,2013-01-23 15:54:00
11:40 AM,5.0,-5.8,61,30.04,8.0,West,17.3,26.5,N/A,,Mostly Cloudy,280,2013-01-23 16:40:00
11:50 AM,5.0,-5.8,61,30.03,3.0,West,21.9,31.1,N/A,,Haze,280,2013-01-23 16:50:00
11:54 AM,5.0,-6.0,61,30.14,3.0,WNW,21.9,31.1,N/A,,Haze,290,2013-01-23 16:54:00
12:54 PM,5.0,-7.1,58,30.12,6.0,NW,15.0,28.8,N/A,,Haze,310,2013-01-23 17:54:00
1:54 PM,8.1,-7.1,50,30.12,10.0,WNW,15.0,24.2,N/A,,Mostly Cloudy,300,2013-01-23 18:54:00
2:54 PM,7.0,-6.0,55,30.12,10.0,WNW,15.0,31.1,N/A,,Partly Cloudy,300,2013-01-23 19:54:00
4:54 PM,3.9,-9.9,53,30.14,10.0,WNW,12.7,23.0,N/A,,Clear,290,2013-01-23 21:54:00
5:54 PM,3.0,-11.0,52,30.16,10.0,West,11.5,19.6,N/A,,Clear,280,2013-01-23 22:54:00
6:54 PM,1.9,-11.0,55,30.18,10.0,West,8.1,-,N/A,,Clear,280,2013-01-23 23:54:00
7:54 PM,1.0,-11.0,57,30.17,10.0,WNW,8.1,-,N/A,,Clear,290,2013-01-24 00:54:00
8:54 PM,-0.0,-11.0,60,30.17,10.0,West,5.8,-,N/A,,Clear,270,2013-01-24 01:54:00
9:54 PM,-0.0,-9.9,63,30.16,10.0,West,5.8,-,N/A,,Clear,270,2013-01-24 02:54:00
10:54 PM,-0.9,-9.9,66,30.16,10.0,WSW,4.6,-,N/A,,Clear,240,2013-01-24 03:54:00
11:54 PM,-2.0,-9.9,69,30.15,10.0,WSW,3.5,-,N/A,,Clear,240,2013-01-24 04:54:00